| time (UTC) | temp C | wind direction | speed KPH | gust KPH | rain 1hr cm | rain 24hr cm | rain mn cm | humidity % | barometer mb |
| 20260506233009 | 15 | 132 | 0.0 | 4.8 | 0.00 | 1.07 | 1.04 | 92 | 1004.5 |
| 20260506231518 | 15 | 204 | 0.0 | 4.8 | 0.00 | 1.09 | 1.04 | 92 | 1004.5 |
| 20260506224525 | 15 | 121 | 0.0 | 11.3 | 0.00 | 1.09 | 1.04 | 92 | 1004.4 |
| 20260506223006 | 15 | 128 | 1.6 | 4.8 | 0.00 | 1.09 | 1.04 | 92 | 1004.4 |
| 20260506221511 | 15 | 188 | 0.0 | 8.0 | 0.00 | 1.09 | 1.04 | 92 | 1004.4 |
| 20260506220018 | 15 | 191 | 3.2 | 9.7 | 0.00 | 1.09 | 1.04 | 92 | 1004.4 |
| 20260506214524 | 15 | 126 | 1.6 | 6.4 | 0.00 | 1.09 | 1.04 | 92 | 1004.4 |
| 20260506213024 | 15 | 169 | 3.2 | 12.9 | 0.03 | 1.09 | 1.04 | 92 | 1004.5 |
| 20260506211509 | 15 | 171 | 3.2 | 8.0 | 0.05 | 1.09 | 1.04 | 93 | 1004.4 |
| 20260506210016 | 15 | 184 | 1.6 | 6.4 | 0.05 | 1.09 | 1.04 | 93 | 1004.5 |
| 20260506204521 | 15 | 167 | 1.6 | 6.4 | 0.13 | 1.09 | 1.04 | 93 | 1004.6 |
| 20260506203026 | 15 | 158 | 1.6 | 9.7 | 0.15 | 1.07 | 1.02 | 93 | 1004.7 |
| 20260506201524 | 15 | 238 | 3.2 | 6.4 | 0.18 | 1.04 | 0.99 | 93 | 1004.9 |
| 20260506200014 | 15 | 190 | 1.6 | 8.0 | 0.25 | 1.04 | 0.99 | 93 | 1005.0 |
| 20260506194518 | 15 | 163 | 1.6 | 8.0 | 0.30 | 0.97 | 0.91 | 93 | 1005.3 |
| 20260506193024 | 15 | 141 | 3.2 | 11.3 | 0.36 | 0.91 | 0.86 | 93 | 1005.4 |
| 20260506191524 | 15 | 207 | 1.6 | 9.7 | 0.36 | 0.86 | 0.81 | 93 | 1005.5 |
| 20260506190012 | 15 | 171 | 3.2 | 12.9 | 0.41 | 0.79 | 0.74 | 92 | 1005.6 |
| 20260506184520 | 16 | 154 | 4.8 | 8.0 | 0.28 | 0.66 | 0.61 | 92 | 1005.6 |
| 20260506183018 | 16 | 153 | 1.6 | 4.8 | 0.23 | 0.56 | 0.51 | 92 | 1005.6 |
| 20260506181504 | 16 | 160 | 1.6 | 6.4 | 0.25 | 0.51 | 0.46 | 92 | 1005.9 |
| 20260506180010 | 16 | 198 | 0.0 | 4.8 | 0.20 | 0.38 | 0.33 | 91 | 1006.2 |
| 20260506174514 | 16 | 177 | 1.6 | 11.3 | 0.25 | 0.38 | 0.33 | 91 | 1006.2 |
| 20260506173020 | 16 | 184 | 0.0 | 3.2 | 0.25 | 0.33 | 0.28 | 91 | 1006.6 |
| 20260506171536 | 16 | 183 | 0.0 | 3.2 | 0.20 | 0.25 | 0.20 | 90 | 1006.9 |
| 20260506170008 | 16 | 194 | 0.0 | 3.2 | 0.13 | 0.18 | 0.13 | 89 | 1007.1 |
| 20260506164528 | 16 | 184 | 0.0 | 3.2 | 0.08 | 0.13 | 0.08 | 87 | 1007.2 |
| 20260506163022 | 16 | 159 | 1.6 | 3.2 | 0.03 | 0.08 | 0.03 | 84 | 1007.1 |
| 20260506161535 | 17 | 156 | 1.6 | 8.0 | 0.00 | 0.05 | 0.00 | 82 | 1007.1 |
| 20260506160025 | 17 | 150 | 3.2 | 16.1 | 0.00 | 0.05 | 0.00 | 80 | 1007.2 |
| 20260506154510 | 17 | 166 | 3.2 | 9.7 | 0.00 | 0.05 | 0.00 | 80 | 1007.3 |
| 20260506153016 | 16 | 73 | 1.6 | 6.4 | 0.00 | 0.05 | 0.00 | 80 | 1007.5 |
| 20260506151520 | 16 | 181 | 1.6 | 9.7 | 0.00 | 0.05 | 0.00 | 80 | 1007.9 |
| 20260506150025 | 17 | 189 | 1.6 | 8.0 | 0.00 | 0.05 | 0.00 | 80 | 1008.0 |
| 20260506144527 | 16 | 203 | 1.6 | 9.7 | 0.00 | 0.05 | 0.00 | 80 | 1008.0 |
| 20260506143011 | 16 | 176 | 1.6 | 6.4 | 0.00 | 0.05 | 0.00 | 80 | 1008.0 |
| 20260506141516 | 16 | 240 | 1.6 | 11.3 | 0.00 | 0.05 | 0.00 | 80 | 1007.9 |
| 20260506140022 | 16 | 38 | 0.0 | 6.4 | 0.00 | 0.05 | 0.00 | 80 | 1008.1 |
| 20260506134555 | 16 | 223 | 1.6 | 11.3 | 0.00 | 0.05 | 0.00 | 81 | 1007.8 |
| 20260506133026 | 16 | 286 | 0.0 | 3.2 | 0.00 | 0.05 | 0.00 | 84 | 1007.8 |
| 20260506131514 | 15 | 304 | 0.0 | 0.0 | 0.00 | 0.05 | 0.00 | 85 | 1007.7 |
| 20260506130019 | 15 | 304 | 0.0 | 3.2 | 0.00 | 0.05 | 0.00 | 85 | 1007.9 |
| 20260506124521 | 14 | 261 | 0.0 | 3.2 | 0.00 | 0.05 | 0.00 | 86 | 1008.3 |
| 20260506123025 | 14 | 21 | 0.0 | 3.2 | 0.00 | 0.05 | 0.00 | 87 | 1008.5 |
| 20260506121527 | 13 | 178 | 0.0 | 3.2 | 0.00 | 0.05 | 0.00 | 89 | 1008.3 |
| 20260506120016 | 13 | 299 | 0.0 | 4.8 | 0.00 | 0.05 | 0.00 | 91 | 1008.6 |
| 20260506114532 | 12 | 285 | 0.0 | 1.6 | 0.00 | 0.05 | 0.00 | 93 | 1008.2 |
| 20260506113029 | 11 | 300 | 0.0 | 1.6 | 0.00 | 0.05 | 0.00 | 93 | 1008.4 |
| 20260506111525 | 11 | 5 | 0.0 | 0.0 | 0.00 | 0.05 | 0.00 | 94 | 1008.6 |
| 20260506110016 | 11 | 5 | 0.0 | 0.0 | 0.00 | 0.05 | 0.00 | 94 | 1008.8 |
| 20260506104518 | 11 | 222 | 0.0 | 0.0 | 0.00 | 0.05 | 0.00 | 94 | 1008.7 |
| 20260506103027 | 10 | 360 | 0.0 | 0.0 | 0.00 | 0.05 | 0.00 | 94 | 1008.7 |
| 20260506101526 | 10 | 360 | 0.0 | 0.0 | 0.00 | 0.05 | 0.00 | 94 | 1008.6 |
| 20260506100032 | 10 | 360 | 0.0 | 0.0 | 0.00 | 0.05 | 0.00 | 93 | 1008.3 |
| 20260506094514 | 10 | 360 | 0.0 | 0.0 | 0.00 | 0.05 | 0.00 | 93 | 1008.3 |
| 20260506093005 | 10 | 360 | 0.0 | 0.0 | 0.00 | 0.05 | 0.00 | 93 | 1008.2 |
| 20260506091506 | 10 | 360 | 0.0 | 3.2 | 0.00 | 0.05 | 0.00 | 92 | 1008.5 |
| 20260506090012 | 11 | 340 | 0.0 | 3.2 | 0.00 | 0.05 | 0.00 | 92 | 1008.3 |
| 20260506083010 | 11 | 300 | 0.0 | 3.2 | 0.00 | 0.05 | 0.00 | 91 | 1008.6 |
| 20260506081503 | 11 | 121 | 0.0 | 0.0 | 0.00 | 0.05 | 0.00 | 90 | 1008.5 |
| 20260506073014 | 12 | 121 | 0.0 | 0.0 | 0.00 | 0.05 | 0.00 | 88 | 1008.6 |
| 20260506071514 | 12 | 121 | 0.0 | 0.0 | 0.00 | 0.05 | 0.00 | 87 | 1008.6 |
| 20260506044520 | 15 | 173 | 0.0 | 3.2 | 0.00 | 0.05 | 0.00 | 80 | 1008.7 |
| 20260506043012 | 15 | 106 | 0.0 | 3.2 | 0.00 | 0.05 | 0.00 | 79 | 1008.6 |
| 20260506041515 | 15 | 93 | 0.0 | 3.2 | 0.00 | 0.05 | 0.00 | 78 | 1008.6 |
| 20260506040021 | 16 | 47 | 1.6 | 4.8 | 0.00 | 0.05 | 0.00 | 77 | 1008.7 |
| 20260506034514 | 16 | 277 | 0.0 | 6.4 | 0.00 | 0.05 | 0.05 | 76 | 1008.6 |
| 20260506033016 | 16 | 234 | 0.0 | 4.8 | 0.00 | 0.05 | 0.05 | 77 | 1008.6 |
| 20260506024534 | 16 | 55 | 0.0 | 3.2 | 0.00 | 0.05 | 0.05 | 93 | 1008.6 |
| 20260506023018 | 16 | 68 | 0.0 | 0.0 | 0.00 | 0.05 | 0.05 | 93 | 1008.6 |
| 20260506021520 | 16 | 46 | 0.0 | 0.0 | 0.00 | 0.05 | 0.05 | 92 | 1008.6 |
| 20260506013020 | 16 | 46 | 0.0 | 3.2 | 0.00 | 0.05 | 0.05 | 91 | 1008.3 |
| 20260506011551 | 16 | 46 | 0.0 | 3.2 | 0.00 | 0.05 | 0.05 | 91 | 1008.2 |
| 20260506010020 | 16 | 150 | 0.0 | 3.2 | 0.00 | 0.05 | 0.05 | 90 | 1008.0 |
| 20260506004517 | 16 | 173 | 0.0 | 0.0 | 0.00 | 0.05 | 0.05 | 90 | 1007.9 |
| 20260506001519 | 16 | 117 | 0.0 | 0.0 | 0.05 | 0.05 | 0.05 | 87 | 1007.6 |
| 20260506000042 | 17 | 117 | 0.0 | 3.2 | 0.05 | 0.05 | 0.05 | 86 | 1007.8 |
| 20260505234537 | 18 | 71 | 1.6 | 3.2 | 0.05 | 0.05 | 0.05 | 79 | 1007.5 |